Wind_Speed
42 43 42 40 39 39 42 43 45 46 49 50 52 52 51 52 54 54 59 49 51 28 23 32 34 23 16 31 5 12 8 4 8 5 5 4 4 5 8 8 7 10 8 4 4 3 7 4 2 3 3 15 13 13
50 47 48 46 40 39 40 42 46 49 55 56 56 55 54 55 57 56 50 53 44 40 10 29 29 23 33 27 22 25 7 15 11 4 4 3 4 2 2 2 9 4 4 4 2 2 4 4 6 7 13 17 14 14
48 46 42 44 41 36 40 45 47 51 56 59 61 63 64 65 67 68 64 44 42 39 28 27 19 21 24 25 30 13 9 17 7 11 2 2 4 2 2 3 4 2 7 4 4 5 6 7 8 9 10 13 11 13
30 34 36 34 37 39 39 45 42 31 33 44 53 62 64 70 70 68 66 55 51 20 6 7 20 13 24 21 22 14 20 11 12 14 11 3 2 3 1 1 3 3 6 6 4 8 11 9 12 14 15 14 14 13
26 25 25 27 30 28 21 10 10 8 24 50 65 75 72 67 70 73 67 57 59 31 5 5 14 13 18 21 13 18 21 13 16 5 3 3 3 3 2 3 2 3 5 4 3 18 7 14 16 17 19 18 18 16
20 18 16 17 13 9 23 17 20 24 20 20 24 47 58 71 74 72 32 53 60 29 8 3 5 12 18 18 14 12 20 21 15 5 4 2 2 3 3 2 4 12 11 8 6 20 9 22 19 17 18 17 16 16
21 20 17 15 17 26 29 25 33 39 56 63 48 47 62 75 70 47 26 47 68 27 6 4 3 12 17 16 17 18 15 10 8 7 4 6 4 4 2 3 10 10 13 15 18 20 17 22 15 18 16 16 15 16
24 25 19 20 28 29 40 40 43 42 50 58 67 73 68 59 49 42 40 51 44 18 7 3 3 5 19 15 6 8 6 4 2 2 2 4 5 3 2 11 17 17 14 12 12 1 17 19 22 20 19 20 19 19
30 28 26 28 29 36 47 48 47 48 53 54 57 55 58 52 40 42 44 32 17 13 7 3 4 4 20 17 10 7 4 2 1 1 2 6 1 2 9 19 22 22 11 16 12 13 23 25 23 23 21 19 19 17
39 32 34 37 38 37 37 37 39 46 42 38 38 29 11 26 40 38 26 7 6 6 4 3 8 4 19 15 3 6 5 3 2 4 3 2 1 6 22 24 24 18 14 20 22 22 23 24 26 22 20 18 16 18
34 33 32 34 33 32 30 32 35 28 18 19 15 18 38 33 18 7 5 5 4 3 5 7 23 11 18 4 3 4 3 2 3 3 4 1 1 2 24 23 21 17 19 17 17 20 23 23 22 22 20 19 17 17
30 31 27 26 22 22 21 21 16 14 24 32 34 29 14 6 6 6 2 1 4 4 6 11 19 17 10 6 4 1 2 2 2 4 3 1 2 23 26 23 19 20 18 16 16 19 19 18 19 20 19 18 16 16
28 26 21 22 18 19 17 14 15 37 42 28 12 7 5 5 6 5 4 2 3 5 19 20 7 7 5 4 4 3 3 2 0 2 3 2 17 26 26 22 20 20 19 17 17 16 15 17 18 18 17 16 14 14
25 21 22 21 21 21 24 27 32 32 18 9 6 6 4 4 4 2 2 3 6 20 26 23 7 5 4 3 2 4 2 3 2 2 3 2 23 27 23 23 25 23 19 17 16 15 15 16 16 14 12 13 13 14
21 21 22 22 17 17 16 16 12 8 8 7 7 4 4 3 6 5 8 21 27 30 25 15 7 5 2 3 1 3 2 2 3 3 2 15 27 25 21 22 21 22 19 18 16 16 16 16 15 15 13 13 13 13
16 17 20 18 16 13 11 12 12 12 7 6 8 5 9 6 3 13 20 22 27 23 12 5 3 3 1 4 2 4 5 2 2 2 13 24 25 21 21 21 19 18 17 17 16 16 15 15 14 14 15 14 13 12
17 20 15 12 16 10 7 12 12 10 7 5 4 12 12 8 9 13 16 11 12 5 1 4 3 2 3 2 2 3 2 2 10 11 14 16 19 21 20 19 19 18 17 16 16 16 15 15 15 15 16 15 13 12
19 13 12 11 14 16 20 15 8 8 8 10 4 7 13 11 16 17 14 9 4 3 2 2 5 3 3 3 1 3 6 12 11 12 14 15 17 18 17 17 16 17 15 12 14 16 16 17 16 15 13 13 13 11
16 10 12 8 5 9 7 9 8 6 9 6 11 11 12 12 16 13 13 11 10 6 5 4 5 3 2 4 6 12 15 12 15 14 14 14 15 16 15 15 16 14 12 13 15 16 16 14 13 12 11 13 11 8
12 9 11 7 6 7 6 7 7 7 4 6 11 12 8 9 13 14 16 15 11 6 8 4 3 4 5 8 9 13 12 13 18 19 16 14 14 15 16 17 16 13 12 14 14 14 16 14 10 7 8 11 10 13
11 11 12 18 22 12 7 5 7 5 5 5 10 7 6 15 13 12 15 14 13 6 4 7 13 12 11 11 11 14 13 11 11 10 20 19 16 16 16 13 11 12 15 17 16 15 18 15 16 16 16 14 14 14
15 11 14 14 9 7 8 8 5 4 5 3 5 6 5 4 5 8 8 11 6 9 7 11 14 14 14 13 12 11 9 9 8 8 11 18 19 15 16 14 12 13 13 16 15 15 16 16 16 16 15 14 13 12
13 15 10 11 7 7 4 7 4 4 3 2 3 3 4 3 4 4 5 5 5 12 12 12 11 7 11 12 15 13 8 9 12 12 14 16 11 12 12 9 12 14 14 16 14 15 16 15 18 16 13 10 10 9
12 7 8 7 8 2 3 5 3 3 4 3 2 3 2 4 5 3 3 4 7 6 10 8 6 12 13 9 11 11 7 5 15 13 11 13 12 11 9 11 13 12 13 15 16 17 15 14 13 11 9 9 8 8
6 8 6 4 5 4 4 3 4 3 2 2 3 2 1 3 2 2 2 4 6 4 7 6 6 8 9 6 5 11 9 8 11 12 10 10 12 12 11 12 12 12 13 14 16 15 15 13 11 10 10 10 10 10
6 10 5 5 5 4 2 2 2 2 2 3 3 2 2 1 2 3 2 5 7 6 7 8 9 9 8 4 7 10 10 7 9 14 11 8 9 12 15 15 16 14 12 12 12 11 12 12 12 11 10 10 10 10
5 4 6 6 4 3 4 5 4 3 2 2 2 2 1 1 2 3 3 2 4 6 8 7 7 9 7 7 7 7 11 11 9 7 11 10 11 11 8 8 12 13 12 9 8 8 10 12 11 10 11 11 11 10
5 6 3 6 6 8 2 3 2 2 2 4 2 2 2 3 2 1 1 3 4 7 11 9 8 7 6 6 7 8 11 10 8 8 9 10 10 10 9 8 8 8 11 10 8 6 6 7 7 7 6 6 6 7
4 3 3 5 4 3 4 3 3 4 4 4 2 2 3 3 3 2 4 5 6 5 10 12 10 7 5 6 8 10 10 8 7 10 11 13 13 12 10 9 10 8 9 9 9 8 7 5 3 3 4 4 4 4
3 3 2 2 2 2 3 4 2 2 3 4 4 3 3 3 5 4 5 7 6 6 5 5 5 6 6 7 10 12 11 10 9 8 6 6 9 10 12 11 9 8 7 7 6 6 6 4 4 3 3 2 2 3
2 2 2 1 2 3 2 2 2 1 0 2 2 3 3 4 4 5 8 9 9 8 6 6 7 6 5 7 12 12 12 11 10 8 7 7 4 8 10 10 9 8 8 7 6 5 4 3 2 1 1 1 2 3
0 1 3 2 3 1 2 0 1 2 3 3 3 5 4 3 5 4 3 6 9 8 8 8 8 11 11 10 8 7 6 9 11 9 7 7 7 7 9 9 8 8 7 6 5 3 2 2 2 2 1 2 2 3
1 1 2 3 2 2 1 2 2 1 2 2 1 2 3 2 2 2 3 7 8 9 12 12 13 13 12 11 11 10 9 11 11 9 8 8 8 8 8 8 8 7 5 4 3 3 3 3 3 2 2 3 3 4
Wind_Direction
244 245 245 244 243 243 241 240 240 239 241 238 241 240 230 223 214 213 216 214 212 225 241 235 243 261 255 213 160 145 133 233 168 166 195 199 227 235 235 196 178 176 174 190 194 219 253 57 47 172 130 87 104 97
250 244 245 243 242 245 245 243 248 246 247 245 239 232 227 221 215 210 213 216 214 215 239 234 235 261 246 240 183 169 186 173 171 158 209 168 277 300 216 161 184 206 163 150 123 144 95 59 64 100 131 104 103 116
244 242 241 231 237 245 247 249 254 253 249 242 236 230 224 218 214 209 209 207 202 207 235 251 240 238 219 224 204 162 198 181 183 198 52 266 227 177 215 250 101 74 104 94 124 144 136 119 114 123 127 123 128 125
214 211 213 222 232 245 252 250 252 255 238 231 227 224 216 213 209 201 202 199 192 182 203 201 197 209 158 174 181 205 169 182 196 201 225 255 249 5 66 147 88 180 114 120 83 124 131 152 139 133 128 130 126 122
178 184 205 221 233 236 236 248 194 231 245 240 235 229 222 211 200 195 194 194 189 176 132 141 161 139 161 168 155 181 176 195 188 210 197 225 191 86 5 74 78 28 152 155 197 179 147 159 159 156 145 137 133 130
164 185 179 191 180 158 149 126 78 64 65 179 164 187 192 191 186 174 171 191 183 180 134 141 102 152 144 153 148 186 193 196 196 204 200 143 163 134 136 114 114 104 103 129 130 158 163 157 165 166 157 153 151 140
146 159 155 145 139 157 149 113 94 77 74 93 124 142 158 161 154 154 165 167 178 179 120 110 93 157 153 162 187 198 199 190 205 215 174 156 178 113 106 151 138 118 126 123 145 140 125 157 165 168 162 148 139 138
128 127 126 124 129 130 128 115 100 94 86 93 101 109 118 125 128 120 133 154 160 147 98 113 93 138 161 145 134 154 146 148 103 137 136 126 128 131 98 135 137 137 136 145 163 151 175 168 156 157 149 155 156 158
118 109 112 112 115 120 124 121 110 100 97 95 100 108 104 105 112 122 131 135 130 114 116 111 122 134 164 154 139 148 159 63 145 133 237 148 181 210 166 153 148 153 152 161 151 157 157 161 154 157 162 163 164 164
103 104 107 104 102 105 107 111 107 103 97 94 97 91 83 112 119 115 111 87 65 64 101 112 120 132 158 150 119 144 157 159 154 233 161 88 263 156 159 165 161 149 156 156 146 156 161 161 162 165 169 172 175 169
101 104 109 108 104 100 103 105 111 107 85 86 84 96 121 123 113 85 82 100 117 82 103 127 144 135 153 113 143 150 174 178 145 234 130 223 199 137 158 160 161 155 161 172 180 176 173 173 167 167 172 180 186 186
101 103 109 114 107 110 115 126 125 100 97 113 108 114 109 84 78 83 79 43 88 155 147 141 139 133 121 112 100 138 123 39 173 168 95 207 224 146 150 152 158 161 165 162 169 171 176 178 176 181 181 183 191 191
96 108 94 107 114 94 105 114 112 119 122 116 100 69 55 17 62 107 148 79 101 151 136 138 113 115 97 92 74 90 115 194 40 64 199 204 141 146 149 155 156 160 156 157 163 170 174 175 184 198 197 198 191 179
107 104 101 105 116 122 120 123 128 132 121 57 48 44 52 23 49 13 37 103 126 129 127 124 90 110 108 71 149 95 216 99 162 124 190 159 147 149 158 160 164 159 167 169 175 183 191 195 195 200 202 194 183 177
95 101 97 85 107 123 102 115 126 124 68 63 40 56 55 76 48 27 97 114 124 127 125 102 81 94 105 118 170 124 138 195 199 175 109 140 155 162 169 173 174 169 174 180 190 196 197 198 198 191 187 183 179 178
100 121 86 70 92 104 90 88 81 72 62 60 47 56 97 81 34 87 109 112 130 125 119 121 113 89 117 140 113 190 165 149 132 88 136 150 157 161 173 180 185 183 182 187 190 196 196 195 194 191 183 178 178 182
102 72 70 71 69 86 72 78 50 51 53 51 39 60 78 64 55 67 87 92 133 127 160 98 77 171 135 98 67 25 68 92 127 136 159 174 176 175 178 183 188 186 190 195 201 197 196 192 189 184 181 178 181 181
73 70 73 94 84 90 69 52 70 61 54 51 69 56 72 69 74 69 70 72 65 76 55 122 128 79 108 97 68 126 111 121 135 148 161 170 174 179 185 194 201 199 198 192 188 187 188 184 181 179 181 184 183 185
61 63 58 113 80 80 57 41 46 78 43 50 83 83 73 72 81 69 70 78 79 85 93 70 54 52 65 68 103 125 145 148 142 148 155 165 175 180 185 184 176 186 186 186 184 187 182 182 182 183 183 188 181 163
68 71 47 79 94 75 67 43 53 72 49 45 71 68 69 82 60 56 50 45 57 63 46 45 40 50 89 105 139 146 152 158 151 143 147 161 173 179 175 171 175 181 176 175 178 177 169 157 158 166 150 161 180 198
86 80 73 85 67 73 83 56 58 64 78 58 68 80 62 76 57 47 32 38 50 36 67 85 94 102 99 104 126 121 119 119 137 158 167 165 168 171 164 171 183 179 179 173 172 170 169 160 182 187 188 188 192 197
55 76 58 50 64 66 65 48 83 90 68 61 44 56 57 47 33 17 19 54 56 33 76 130 115 112 116 116 123 124 125 141 141 148 156 162 161 168 169 181 182 174 176 175 180 173 167 183 195 199 208 213 215 220
59 63 52 37 65 57 35 30 64 40 76 41 36 62 39 44 15 35 79 65 75 65 88 108 126 120 116 113 112 108 120 142 132 135 142 151 157 169 177 181 175 174 170 180 185 183 190 200 203 211 217 224 225 231
41 49 38 39 46 63 52 33 56 61 54 39 64 61 50 22 8 54 74 75 98 105 111 105 105 113 106 110 119 113 119 132 130 136 147 155 158 162 174 178 182 189 192 189 191 192 199 197 198 211 222 219 216 221
56 20 39 19 32 59 52 29 357 55 61 75 68 61 15 350 37 59 86 108 113 146 157 136 147 166 156 131 118 129 128 142 139 137 143 161 164 165 168 172 179 186 193 194 190 198 196 203 214 213 212 209 219 237
65 27 44 22 3 52 57 64 37 58 87 69 57 64 8 25 61 58 58 113 126 131 140 143 139 141 137 148 143 147 128 153 164 144 149 159 171 181 175 174 171 164 184 198 203 207 210 211 208 208 216 220 230 237
50 26 21 30 22 57 51 43 34 72 64 94 122 165 195 93 89 96 135 162 169 185 174 158 155 173 169 179 181 173 166 175 184 172 165 173 179 183 198 200 195 197 200 207 218 216 210 200 208 218 225 230 240 254
51 37 81 17 41 37 62 7 51 44 49 12 143 59 83 36 73 128 243 200 189 181 178 176 180 185 198 213 201 186 174 175 169 164 167 166 170 182 195 202 195 183 192 198 204 207 207 218 232 224 219 228 240 249
55 50 52 21 21 42 29 29 51 53 10 6 42 60 93 86 119 142 130 139 127 116 170 187 193 197 178 155 151 157 169 174 182 177 180 173 168 168 183 187 190 191 195 202 205 214 228 237 226 222 245 264 268 269
49 33 42 59 83 31 57 44 75 346 64 96 105 96 93 101 160 169 147 132 140 168 194 213 210 187 182 173 153 150 165 173 171 184 178 179 191 188 186 191 194 191 192 197 204 199 193 208 231 245 248 258 283 307
48 32 350 345 81 85 149 306 352 317 27 155 175 155 169 181 213 233 209 201 191 190 199 197 177 202 212 203 193 195 194 199 198 203 217 215 199 189 188 185 182 184 186 185 182 185 198 211 214 217 234 327 0 10
65 261 331 355 101 334 2 349 258 246 223 214 216 197 190 207 201 244 232 215 209 200 196 212 206 209 214 223 216 212 206 203 192 191 193 201 197 176 167 168 171 173 171 174 178 182 169 152 142 121 80 33 9 1
318 52 330 321 201 174 46 341 252 293 203 204 178 152 149 182 138 226 188 180 182 175 191 202 204 206 211 215 211 211 198 186 183 178 169 158 155 156 160 160 159 159 161 164 160 147 132 118 105 90 64 37 21 13
Height
1291 1295 1299 1303 1307 1311 1315 1319 1324 1329 1334 1341 1348 1357 1367 1377 1389 1401 1404 1416 1423 1427 1431 1435 1434 1438 1440 1440 1447 1452 1461 1463 1466 1472 1473 1467 1464 1458 1454 1451 1454 1461 1473 1476 1480 1479 1478 1481 1482 1483 1484 1481 1482 1483
1275 1281 1287 1292 1296 1299 1302 1305 1308 1310 1314 1319 1327 1337 1349 1361 1375 1391 1398 1406 1420 1429 1428 1432 1429 1431 1431 1437 1439 1447 1447 1451 1455 1461 1459 1458 1460 1454 1446 1458 1453 1462 1460 1467 1476 1479 1482 1483 1482 1482 1481 1483 1486 1486
1258 1266 1273 1280 1286 1289 1290 1290 1290 1290 1292 1295 1300 1311 1325 1340 1357 1371 1383 1401 1418 1423 1429 1428 1425 1430 1428 1430 1434 1440 1446 1446 1448 1449 1451 1453 1454 1449 1454 1453 1453 1457 1459 1469 1476 1482 1482 1483 1483 1482 1483 1485 1488 1489
1246 1254 1264 1272 1277 1278 1277 1275 1273 1269 1266 1265 1268 1277 1296 1317 1338 1360 1373 1388 1407 1416 1421 1419 1421 1427 1421 1427 1432 1435 1440 1445 1449 1453 1456 1453 1453 1447 1452 1452 1453 1455 1460 1469 1477 1480 1482 1483 1483 1484 1485 1488 1490 1492
1245 1254 1261 1267 1269 1269 1267 1265 1264 1257 1246 1235 1236 1247 1271 1297 1323 1351 1371 1382 1397 1409 1412 1418 1422 1418 1421 1426 1431 1434 1438 1444 1446 1449 1450 1452 1448 1449 1450 1452 1456 1455 1459 1466 1468 1467 1472 1478 1481 1484 1486 1488 1490 1492
1248 1255 1260 1263 1264 1264 1266 1265 1260 1246 1216 1202 1206 1216 1248 1283 1314 1342 1364 1378 1391 1403 1407 1416 1417 1419 1421 1425 1431 1437 1440 1442 1444 1445 1446 1446 1446 1448 1455 1459 1457 1457 1456 1457 1461 1466 1469 1474 1481 1484 1486 1488 1491 1493
1252 1258 1261 1263 1264 1267 1267 1269 1264 1252 1231 1217 1216 1232 1257 1287 1313 1333 1342 1352 1381 1398 1401 1412 1418 1421 1424 1429 1435 1437 1438 1439 1442 1443 1443 1444 1445 1446 1452 1456 1457 1458 1457 1458 1462 1464 1474 1477 1480 1483 1485 1489 1492 1494
1259 1263 1265 1267 1268 1270 1271 1275 1273 1269 1262 1257 1261 1272 1290 1310 1329 1344 1356 1371 1389 1393 1395 1406 1415 1423 1425 1428 1432 1434 1436 1438 1439 1439 1441 1442 1445 1446 1454 1452 1455 1457 1459 1461 1464 1466 1469 1476 1479 1483 1486 1489 1491 1493
1268 1270 1272 1273 1275 1275 1278 1280 1282 1283 1283 1284 1289 1297 1308 1328 1341 1354 1366 1377 1381 1386 1395 1402 1409 1419 1424 1427 1430 1434 1435 1439 1439 1440 1440 1442 1445 1449 1445 1449 1452 1455 1457 1461 1464 1467 1471 1474 1478 1483 1485 1488 1490 1492
1279 1280 1281 1283 1284 1286 1288 1291 1293 1295 1297 1298 1301 1309 1327 1339 1348 1357 1369 1373 1382 1386 1392 1400 1405 1414 1419 1424 1429 1433 1434 1439 1443 1440 1438 1442 1446 1441 1442 1446 1450 1454 1457 1460 1464 1469 1472 1475 1477 1481 1484 1487 1489 1491
1292 1293 1294 1296 1298 1299 1301 1303 1305 1306 1310 1313 1318 1330 1342 1348 1354 1361 1371 1377 1385 1393 1395 1401 1405 1409 1420 1422 1426 1428 1433 1434 1439 1439 1441 1444 1446 1441 1443 1447 1450 1453 1457 1461 1465 1468 1472 1475 1477 1481 1483 1485 1488 1491
1303 1304 1306 1308 1311 1314 1315 1317 1318 1318 1320 1326 1328 1341 1348 1353 1359 1368 1378 1379 1384 1392 1393 1400 1406 1411 1416 1420 1424 1428 1431 1433 1434 1432 1441 1443 1441 1440 1443 1448 1452 1454 1458 1462 1465 1469 1472 1476 1478 1481 1483 1484 1487 1490
1312 1315 1317 1319 1320 1321 1322 1324 1325 1327 1331 1336 1338 1344 1351 1360 1368 1373 1382 1384 1387 1387 1391 1396 1405 1411 1417 1420 1424 1427 1432 1437 1430 1440 1441 1438 1437 1440 1445 1449 1452 1456 1459 1463 1466 1470 1473 1475 1478 1480 1482 1484 1486 1489
1324 1325 1325 1326 1328 1329 1330 1331 1333 1335 1339 1343 1349 1361 1365 1371 1373 1374 1373 1376 1381 1385 1391 1398 1404 1410 1417 1421 1424 1429 1432 1431 1438 1444 1431 1435 1437 1441 1445 1449 1452 1456 1460 1464 1467 1470 1472 1474 1477 1480 1482 1484 1486 1488
1332 1332 1332 1333 1335 1336 1337 1338 1340 1341 1345 1353 1359 1371 1375 1377 1377 1376 1376 1378 1385 1389 1393 1399 1406 1410 1417 1421 1421 1427 1431 1434 1431 1433 1432 1434 1437 1442 1446 1450 1453 1456 1459 1463 1466 1469 1472 1473 1476 1479 1481 1483 1486 1488
1338 1338 1339 1341 1342 1343 1343 1344 1343 1344 1355 1364 1372 1377 1379 1379 1380 1380 1383 1385 1391 1394 1398 1401 1406 1413 1417 1418 1420 1424 1422 1427 1430 1431 1433 1435 1439 1443 1447 1451 1454 1457 1460 1463 1466 1469 1471 1473 1475 1477 1480 1483 1486 1488
1344 1344 1346 1346 1346 1346 1346 1346 1349 1359 1368 1375 1382 1382 1382 1383 1384 1386 1388 1391 1394 1397 1400 1400 1408 1411 1412 1417 1418 1420 1424 1428 1430 1432 1434 1438 1441 1444 1448 1452 1454 1457 1460 1463 1465 1467 1470 1472 1474 1477 1479 1482 1485 1488
1349 1351 1351 1351 1351 1351 1351 1355 1363 1374 1382 1386 1387 1389 1388 1387 1389 1392 1394 1395 1396 1397 1399 1402 1403 1408 1418 1417 1424 1425 1428 1430 1432 1434 1436 1439 1442 1446 1449 1452 1453 1456 1459 1461 1464 1466 1468 1471 1473 1476 1479 1481 1484 1487
1356 1357 1356 1356 1355 1356 1363 1370 1374 1385 1390 1391 1393 1393 1394 1395 1397 1398 1398 1398 1398 1398 1399 1402 1409 1416 1419 1420 1423 1426 1428 1430 1433 1436 1438 1441 1443 1446 1449 1451 1453 1455 1458 1461 1463 1465 1468 1471 1474 1476 1478 1480 1483 1486
1362 1361 1360 1359 1359 1362 1373 1381 1383 1389 1395 1397 1397 1398 1400 1401 1401 1401 1401 1400 1399 1401 1407 1414 1419 1421 1422 1424 1425 1427 1428 1431 1433 1436 1439 1442 1444 1446 1449 1451 1454 1456 1459 1461 1464 1466 1469 1472 1474 1477 1479 1480 1482 1484
1365 1365 1365 1363 1363 1370 1381 1387 1391 1396 1398 1400 1401 1402 1404 1405 1405 1405 1404 1404 1404 1413 1419 1423 1425 1427 1427 1427 1428 1429 1431 1432 1433 1435 1438 1441 1444 1447 1449 1452 1454 1457 1458 1460 1463 1466 1469 1472 1474 1476 1478 1480 1482 1484
1369 1369 1368 1368 1373 1381 1389 1394 1396 1399 1402 1404 1404 1405 1407 1410 1411 1411 1411 1412 1420 1424 1424 1427 1429 1430 1431 1431 1432 1433 1433 1434 1435 1437 1439 1441 1444 1447 1450 1452 1454 1456 1459 1462 1464 1467 1469 1472 1473 1475 1478 1480 1481 1483
1374 1373 1375 1379 1383 1390 1400 1398 1400 1401 1405 1407 1407 1409 1413 1414 1415 1415 1418 1423 1428 1429 1429 1430 1431 1432 1433 1434 1435 1436 1436 1436 1437 1439 1440 1443 1446 1448 1451 1453 1455 1457 1460 1463 1465 1467 1468 1470 1472 1474 1476 1477 1479 1479
1380 1382 1386 1390 1394 1400 1401 1402 1403 1405 1406 1408 1411 1415 1417 1417 1417 1417 1422 1428 1431 1432 1432 1433 1434 1434 1436 1437 1437 1438 1438 1439 1439 1441 1442 1444 1447 1449 1451 1454 1456 1458 1460 1462 1463 1465 1467 1469 1471 1472 1474 1474 1475 1476
1389 1398 1399 1402 1402 1403 1405 1407 1408 1408 1413 1413 1416 1418 1420 1419 1420 1421 1424 1431 1432 1433 1433 1434 1435 1435 1436 1438 1439 1440 1440 1440 1441 1442 1444 1446 1447 1449 1452 1453 1455 1457 1459 1461 1463 1464 1466 1468 1469 1471 1472 1473 1473 1474
1402 1405 1406 1405 1406 1406 1408 1413 1413 1414 1414 1417 1420 1421 1421 1420 1424 1426 1430 1432 1432 1433 1434 1435 1436 1436 1437 1438 1439 1440 1440 1441 1441 1442 1445 1447 1448 1449 1451 1453 1455 1457 1458 1460 1462 1464 1465 1466 1467 1469 1470 1471 1471 1471
1412 1411 1411 1411 1410 1410 1412 1413 1414 1414 1416 1419 1421 1421 1421 1426 1426 1432 1433 1432 1432 1433 1434 1435 1436 1437 1438 1439 1439 1439 1440 1441 1443 1444 1444 1446 1448 1450 1452 1453 1454 1456 1457 1459 1461 1462 1463 1464 1466 1467 1468 1468 1468 1469
1413 1414 1416 1416 1414 1414 1416 1416 1417 1418 1419 1420 1420 1423 1426 1427 1431 1433 1432 1431 1431 1432 1434 1436 1437 1438 1438 1438 1438 1439 1440 1442 1443 1444 1445 1447 1448 1450 1452 1453 1454 1455 1457 1458 1459 1461 1462 1464 1464 1465 1466 1467 1467 1467
1417 1418 1418 1418 1418 1418 1419 1419 1420 1423 1424 1422 1422 1425 1427 1429 1431 1431 1431 1431 1433 1434 1435 1436 1436 1437 1437 1437 1438 1439 1440 1441 1442 1443 1445 1446 1448 1450 1451 1452 1454 1455 1457 1458 1459 1460 1461 1462 1463 1464 1464 1464 1464 1464
1419 1419 1419 1420 1421 1421 1423 1424 1424 1424 1424 1424 1425 1427 1428 1430 1431 1431 1432 1433 1434 1435 1435 1435 1435 1435 1436 1437 1438 1439 1440 1441 1442 1444 1444 1445 1447 1449 1450 1452 1453 1455 1456 1458 1459 1460 1461 1461 1462 1462 1462 1463 1463 1463
1421 1421 1421 1421 1421 1423 1424 1423 1423 1423 1424 1425 1425 1426 1427 1429 1429 1430 1430 1431 1432 1433 1433 1434 1435 1435 1436 1437 1437 1438 1439 1441 1442 1443 1444 1445 1447 1448 1450 1452 1453 1455 1456 1457 1458 1459 1460 1460 1461 1461 1461 1461 1461 1462
1423 1423 1422 1422 1423 1424 1423 1424 1424 1424 1423 1424 1424 1425 1427 1428 1428 1428 1427 1427 1428 1430 1431 1432 1433 1433 1435 1436 1437 1438 1438 1440 1441 1443 1444 1445 1446 1448 1450 1452 1453 1454 1456 1457 1458 1459 1459 1460 1460 1460 1461 1461 1461 1461
1423 1423 1423 1423 1422 1423 1423 1423 1422 1422 1422 1422 1422 1423 1423 1424 1425 1427 1426 1426 1428 1427 1428 1429 1430 1432 1433 1434 1436 1436 1438 1439 1441 1443 1444 1446 1447 1449 1450 1452 1453 1455 1456 1457 1457 1458 1459 1459 1460 1460 1460 1461 1460 1460